Location: Elmsmere
(40.9284°N, 73.8207°W)
Time: 21:54:06
(UTC+00:00)

N. Korean satellite - Pass Details

Date: 06 December 2022
Orbit: 407 x 442 km, 97.3° (Epoch: 04 February)

Event Time Altitude Azimuth Distance (km) Brightness Sun altitude
Rises 22:00:01 0° 191° (S) 2,445 10.7 -6.4°
Reaches altitude 10° 22:02:14 10° 203° (SSW) 1,589 9.9 -6.7°
Maximum altitude 22:05:11 27° 264° (W) 910 8.9 -7.3°
Drops below altitude 10° 22:08:13 10° 324° (NW) 1,623 9.4 -7.8°
Sets 22:10:30 0° 337° (NNW) 2,510 10.2 -8.2°
